Rasht, ایران

07:29 AM +0330 on ژانویه 22, 2018 (GMT +0330)
Rasht | | Change Station

Elev -39 ft 37.33 °N, 49.61 °E | Updated 29 minutes ago

مه
مه
39 °F
Feels Like 39 °F
N
0
باد متغير باد from شمال

امروز
High -- | Low -- °F
--% Chance of Precip.
دیروز
High -- | Low -- °F
Precip. -- در
فشار 30.06 در
ديد 0.5 مايل، ميل (در برابر كيلومتر
ابری
قطره شبنم 39 °F
رطوبت 100%
بارش باران 0.00 در
برف عمیق Not available.
7:21 AM 5:24 PM
Waxing Crescent, 23% visible
METAR OIGG 220330Z 00000KT 0800 R27/1400U FG VV002 04/04 Q1018
فشار 30.06 در
ديد 0.5 مايل، ميل (در برابر كيلومتر
ابری
قطره شبنم 39 °F
رطوبت 100%
بارش باران 0.00 در
برف عمیق Not available.
7:21 AM 5:24 PM
Waxing Crescent, 23% visible
METAR OIGG 220330Z 00000KT 0800 R27/1400U FG VV002 04/04 Q1018

Get Severe Weather Alerts

Thanks for signing up!

Be on the lookout for a verification email in your inbox.

You'll start receiving the daily forecast at 6 AM.

×

10-Day Weather Forecast

Heavy Snow conditions possible.
No radar image for this location.
×

Almanac

ستاره شناسی

Jan. 22, 2018 Rise Set
وقت حقیقی
تاریک و روشن اجتماعی
تاریک روشن دریایی
شفق و فلق نجومی
ماه
میزان روشنایی روز
طول روز
Tomorrow will be .
, % of the Moon is Illuminated

Today's Extremes

Country Highs Country Lows

Community

WunderPhotos

Category 6

Welcome to Category 6. This is the collective home for Weather Underground's featured writeups by Dr. Jeff Masters (right), Bob Henson (left), Chris Burt, and other regular contributors.

Nearby

تمیزی هوا

  تمیزی هوا AQ Index آلاینده
Not available.

عمق برف

Station Depth Elevation

Earthquake Activity

شهر Distance Mag. Time & Date
Minimum magnitude displayed is 2.5.

Coastal Water Temperatures

منطقه درجه حرارت

Stations

Nearby Weather Stations

Station Location دما باد سرد قطره شبنم رطوبت باد Precip. Elev ارتقا دادن Type